COSMOS 1691 DEB, 16270

Orbit data source: Space-Track

COSMOS 1691 DEB, 16270 is space debris in LEO originally from a launch on Wed, 09 Oct 1985 UTC launched from the Plesetsk Missile And Space Complex (PKMTR). Debris objects in space refer to the collection of defunct objects orbiting the Earth. Examples of debris include non-operational satellites, rocket bodies, and fragments generated from explosions, collisions, or faulty payload assembly.

Loading next visibility...
Identifier
16270, 1985-094P
Orbit
LEO
Country
Flag of CISCIS
Related business
Manufacturer
Unknown
Mission
Spacecraft
Bus & Motor
Unknown
Mass
Unknown
Launch date (UTC)
1985-10-09 (41 years ago)
Launch vehicle
Unknown
Launch site
Plesetsk Missile And Space Complex (PKMTR)
Object type
Payload
Rocket body
Debris
Shape & HBR
Unknown shape, 0.2 m
Radar Cross Section
Medium (>0.1 m² and <1 m²)

Expand to show TLE details & history
Last TLE update: 2 days ago

TLE from 2 days ago
0 COSMOS 1691 DEB
1 16270U 85094P   26171.20792120  .00000102  00000-0  39937-3 0  9999
2 16270  82.7328 343.5074 0260406  37.3800 135.6822 12.69155040882168
Epoch: 2026-06-20T04:59Z
TLE epoch observation values (Epoch: 2026-06-20T04:59:24.391Z)
Latitude
4.78057°
Longitude
179.62183°
Altitude
1,534.81 km
Speed
7.031 km/s
True Right ascension
10h 51m 35s
True Declination
4° 45' 18"
Sunlit
Object was in daylight at epoch
Visualization orbit readout
Latitude
Unknown
Longitude
Unknown
Altitude
Unknown
Speed
Unknown
Apparent Right ascension
Unknown
Apparent Declination
Unknown
Sunlit
N/A
Visualization observer readout
Local Sidereal Time
23:20:22
Azimuth
Unknown
Elevation
Unknown
Doppler factor
Unknown
Orbital elements
Apogee altitude
1,584.783 km
Perigee altitude
1,180.59 km
Semi-major axis
7,760.823 km
Eccentricity
0.02604
Inclination
82.7328°
RAAN
343.5074°
Arg. of periapsis
37.38°
True anomaly
137.71904°
Mean anomaly
135.6822°
Eccentric anomaly
136.70535°
Mean motion
3.17454 °/min
Orbital period
113.4 mins
BSTAR
0.00039937
Loading maneuver chart data...
Computing Atmospheric mass density...
Loading historical data...
Loading historical data...
Loading historical data...
Loading historical data...
Loading historical data...
Loading historical data...
Loading historical data...

Documentation

Showing up to 5 results
|